Theta_e
312 313 313 313 311 310 314 325 317 328 325 313 316 314 317 312 319 319 316 317 317 316 315 313 313 311 315 319 317 312 315 311 307 310 317 317 315 313 311 305 306 308 307 307
312 313 313 312 311 310 314 320 323 329 324 309 311 315 316 318 317 316 316 315 317 318 315 313 315 315 320 320 317 316 318 311 304 307 312 316 312 314 313 312 312 308 305 308
312 312 313 313 312 311 314 321 314 320 320 319 316 317 315 314 316 314 316 316 318 315 314 317 314 316 319 320 319 328 321 313 310 305 309 313 312 312 314 313 307 307 308 311
312 312 313 313 312 311 317 321 316 320 316 314 315 317 316 313 311 315 315 313 314 313 311 313 314 317 318 319 321 319 317 310 312 312 313 313 313 313 314 312 311 307 311 312
311 312 313 313 312 310 321 315 315 318 317 317 315 308 313 312 312 313 311 310 313 313 311 314 313 316 317 317 319 318 319 311 313 310 313 313 311 314 314 314 313 313 313 312
311 312 313 313 311 312 320 319 322 316 310 312 311 311 312 312 314 313 313 314 312 311 313 315 317 319 318 319 317 316 316 314 312 307 312 311 307 312 313 314 315 314 310 316
311 312 313 313 311 310 317 320 319 314 307 309 309 309 311 310 311 309 312 312 310 315 319 317 315 313 312 313 314 315 311 312 310 305 308 299 311 317 315 312 313 316 316 317
311 312 312 313 312 311 315 322 318 316 311 311 310 308 307 308 310 308 308 310 315 317 312 305 302 303 305 307 309 309 310 308 304 301 301 306 308 311 310 309 309 319 318 321
311 312 313 313 312 310 315 322 322 318 313 310 313 310 310 308 309 310 311 315 318 315 309 305 300 298 303 303 306 312 310 312 305 302 297 296 306 312 317 316 305 319 320 321
311 312 312 313 313 311 312 320 323 319 313 314 315 310 311 313 311 309 313 313 312 314 307 303 301 301 307 301 302 304 306 307 302 302 299 302 311 315 317 303 307 318 319 319
311 312 312 312 313 313 312 320 324 317 315 315 314 314 313 313 311 308 314 312 311 309 305 304 305 304 306 305 308 306 304 303 302 305 301 298 317 316 311 316 319 318 318 320
310 311 312 313 313 312 312 317 322 322 316 317 319 317 318 317 317 315 313 312 315 314 311 310 310 306 308 307 301 311 303 307 304 306 306 317 316 317 319 319 317 317 317 318
310 311 312 312 313 312 311 315 321 319 315 315 314 313 317 319 318 320 313 315 316 315 318 312 309 304 308 302 303 306 309 313 308 309 311 313 317 315 316 316 316 317 318 317
310 311 311 312 313 312 311 315 321 318 315 309 312 319 314 320 319 318 319 317 318 316 315 309 307 305 311 305 307 305 308 310 308 307 310 312 313 315 315 315 316 316 317 316
310 311 311 311 311 311 311 319 322 322 314 310 311 315 316 318 318 316 317 316 315 313 310 309 307 310 309 309 308 305 309 307 304 303 311 311 312 315 315 314 314 314 314 315
310 310 310 310 310 310 313 312 322 322 320 312 306 317 315 316 317 316 316 317 316 314 311 309 311 313 309 303 302 309 310 312 312 309 314 313 314 314 315 313 314 314 314 315
310 310 310 310 310 310 311 309 314 311 320 312 307 307 314 316 317 316 315 317 314 313 310 308 308 309 309 305 301 309 310 312 314 315 313 310 312 310 314 314 314 315 316 317
310 310 309 309 309 309 313 317 310 311 315 313 307 305 309 316 310 309 316 312 312 312 310 310 307 309 308 302 307 309 312 313 313 312 313 312 311 312 312 313 315 312 312 316
309 309 309 314 312 316 314 313 313 318 313 307 308 304 303 314 312 313 312 313 304 313 308 307 308 305 301 306 309 310 311 312 309 311 311 310 310 311 312 312 311 311 313 313
309 311 313 311 315 312 313 315 310 310 311 311 306 312 305 309 309 308 309 311 305 301 306 311 305 303 310 311 311 311 311 311 311 308 306 309 309 309 308 310 311 312 313 314
314 312 311 318 315 315 312 306 305 305 303 307 308 310 306 313 305 306 310 305 306 298 303 302 301 301 308 310 309 312 311 312 311 311 311 312 311 310 310 310 310 312 313 314
307 308 313 316 311 307 303 302 305 303 302 308 307 308 310 313 314 306 308 303 305 297 308 301 297 304 311 310 309 310 312 312 310 310 310 312 312 312 311 309 308 312 314 315
314 311 307 306 305 294 296 295 300 302 307 309 310 308 309 312 312 307 307 301 299 307 300 297 301 311 311 313 312 312 313 313 311 310 312 313 311 311 309 308 310 311 312 314
306 304 293 300 298 300 302 303 305 312 310 310 310 312 310 311 308 308 301 304 303 297 296 297 305 313 313 314 314 313 311 311 310 312 313 312 311 309 310 310 311 311 313 315
304 304 294 299 304 307 308 310 310 311 314 311 310 311 313 310 305 306 303 298 296 298 298 302 310 316 316 314 314 313 311 311 312 313 312 312 310 309 309 311 313 314 315 316
306 305 302 305 304 304 307 309 309 313 312 314 313 306 305 303 305 300 299 297 296 300 304 304 314 314 315 314 314 313 313 314 313 314 314 313 312 310 310 312 313 314 313 313
304 304 308 307 306 306 308 312 312 313 310 307 309 301 300 307 302 299 303 299 305 307 305 304 314 315 314 314 314 314 314 314 314 314 314 313 313 314 312 310 312 313 312 312
Wind_Speed
27 28 27 28 29 37 4 8 6 9 9 9 9 12 18 12 4 4 8 8 14 16 10 16 12 15 8 11 5 5 11 13 12 13 12 14 14 11 13 9 12 8 11 6
27 28 28 28 25 21 9 6 6 8 9 8 11 17 18 3 7 5 10 7 8 10 10 8 12 8 10 5 4 5 10 7 11 13 13 14 13 12 11 14 13 11 8 5
27 28 29 30 28 19 6 7 4 6 7 12 15 13 14 10 5 11 7 11 10 7 10 12 6 11 10 6 4 8 2 14 15 13 13 16 10 10 8 14 11 12 11 14
26 27 28 31 33 31 5 6 5 6 1 9 13 14 10 10 9 7 1 8 11 11 12 12 13 13 12 8 9 4 7 14 16 17 21 20 19 16 10 11 10 12 13 15
25 26 26 29 35 41 6 7 7 10 11 4 8 2 8 9 1 4 6 5 14 3 4 11 15 12 7 14 11 9 8 14 14 18 18 21 22 19 18 14 17 16 15 18
24 25 25 27 28 28 6 8 8 7 6 7 8 5 2 4 7 4 5 10 10 6 12 12 12 10 11 12 10 7 10 11 12 15 16 16 20 14 16 20 21 20 18 14
23 23 24 24 24 21 8 8 9 7 10 5 6 5 6 2 7 9 5 4 7 10 11 13 12 13 15 14 13 12 12 11 11 14 13 20 14 18 17 11 14 14 10 8
22 22 22 23 23 23 8 7 7 7 9 7 2 3 4 2 0 6 10 5 7 9 10 8 9 10 13 15 15 14 14 12 11 13 14 18 17 17 14 11 8 15 10 12
21 21 21 22 22 22 10 7 7 7 7 10 10 8 3 9 7 7 7 5 6 8 7 7 8 7 7 5 8 11 12 12 10 12 15 17 10 13 7 6 8 12 10 8
20 20 20 21 22 21 11 6 11 7 9 10 8 6 10 7 7 5 4 1 4 3 5 7 9 10 11 11 11 7 7 7 11 11 13 15 12 13 6 8 4 10 11 10
20 19 19 21 20 20 13 8 7 7 7 8 6 6 7 4 4 7 8 6 7 5 4 6 7 6 6 4 7 7 7 8 9 9 14 13 17 10 7 7 5 7 7 7
20 20 18 18 18 20 18 7 8 5 6 7 4 5 4 5 7 7 4 6 2 7 5 4 5 6 5 6 8 5 6 8 8 6 6 1 11 10 6 10 10 12 10 8
18 18 18 18 15 16 13 7 10 8 7 7 6 8 3 2 4 7 6 2 4 3 4 6 5 4 5 7 7 11 7 14 6 10 10 13 4 8 10 13 14 15 14 13
16 16 16 16 15 14 15 8 6 8 5 6 9 5 3 3 3 4 7 5 2 3 4 4 5 6 4 6 7 8 9 13 9 12 11 15 11 13 12 12 13 16 18 19
16 16 14 14 15 15 12 10 3 4 6 7 4 7 2 5 4 4 3 4 4 4 5 5 6 5 5 5 7 7 9 9 7 10 8 7 9 14 17 18 16 15 19 19
15 15 15 13 14 15 7 2 5 8 6 6 4 7 5 4 4 4 3 4 4 4 4 6 5 6 5 5 6 9 13 15 14 9 12 13 14 16 16 17 18 19 18 19
15 15 15 14 12 7 5 3 4 10 8 5 5 5 7 7 6 5 6 8 4 5 4 5 8 8 4 8 10 10 13 14 15 11 13 14 15 16 15 16 19 19 21 18
17 16 16 16 11 11 5 1 7 6 5 5 6 4 6 8 7 5 3 2 5 5 3 5 7 6 6 9 3 7 9 8 9 10 11 14 15 15 12 13 16 16 16 19
18 18 17 5 5 1 2 2 5 5 3 4 5 5 3 7 7 3 6 3 4 2 5 8 4 5 6 3 5 10 14 11 7 11 15 17 18 14 17 20 21 22 20 18
18 7 4 2 2 2 3 4 2 3 3 4 5 4 3 5 5 2 1 0 2 5 5 5 5 10 4 7 4 5 4 6 10 13 12 14 17 16 14 23 18 18 21 20
4 3 3 3 2 4 3 3 4 4 5 5 5 2 1 1 4 3 2 2 2 4 5 3 4 2 5 3 3 5 8 11 11 14 14 13 12 17 19 19 21 20 21 19
4 5 6 4 4 2 5 4 4 5 4 7 7 4 3 3 1 4 1 2 2 6 1 2 4 2 6 3 4 8 10 13 14 15 12 15 17 18 17 16 19 20 21 20
6 5 5 3 2 2 5 6 4 4 4 4 4 5 3 4 3 2 2 4 5 5 4 5 7 9 5 5 4 8 9 13 13 13 13 10 14 15 13 16 18 18 18 14
4 3 3 5 6 6 6 4 2 2 2 4 3 1 2 2 2 1 4 4 2 5 5 7 1 6 3 2 5 7 10 12 11 11 11 11 13 13 16 15 16 16 16 16
4 3 4 8 9 6 6 3 5 6 7 5 3 3 3 3 3 3 3 3 5 5 6 7 3 5 4 4 7 9 10 9 9 10 11 9 11 11 14 15 16 15 17 17
4 6 8 9 8 6 6 9 6 5 2 1 1 3 4 5 3 5 7 4 6 2 4 9 5 4 2 3 8 8 8 7 9 9 10 9 10 12 15 16 13 13 14 16
5 7 9 10 7 10 9 6 2 5 8 3 1 5 4 2 4 5 6 5 7 1 2 3 14 3 5 6 8 7 6 9 8 9 10 11 11 10 8 11 12 13 14 14
Wind_Direction
349 346 343 344 348 338 325 291 266 127 170 202 227 234 243 278 321 144 264 279 293 307 303 280 215 247 335 166 207 253 244 272 253 230 212 209 259 269 199 224 226 267 303 85
350 348 343 344 352 3 319 277 278 147 207 227 226 221 247 201 291 249 265 250 258 301 290 312 313 303 85 73 219 32 347 251 249 255 262 207 215 238 260 285 293 286 288 106
351 349 344 342 344 349 289 276 253 149 209 261 292 289 229 243 156 293 324 299 331 299 267 270 272 291 151 125 64 11 317 271 290 284 299 338 314 202 239 269 259 250 240 265
353 351 347 344 343 341 272 245 308 14 247 215 254 271 316 244 184 195 355 275 253 268 277 263 253 234 262 155 145 218 255 258 278 287 294 302 304 301 281 241 263 271 297 312
355 354 351 349 348 336 232 334 349 344 290 291 324 328 256 279 252 130 294 227 295 334 294 333 344 359 6 316 139 206 238 260 266 276 283 291 290 290 288 282 283 288 285 286
356 355 353 353 1 345 345 4 317 283 295 262 253 293 239 199 347 77 326 338 340 278 22 337 331 324 316 318 332 320 304 315 312 282 290 292 270 265 267 270 274 269 263 291
356 354 352 354 358 9 309 351 308 274 274 246 16 14 1 276 38 321 29 25 303 32 327 309 289 285 279 273 272 275 271 263 276 279 287 264 281 296 304 315 308 326 330 320
355 354 352 353 353 357 319 317 337 316 307 346 354 251 298 47 222 262 264 322 22 333 298 290 257 248 246 257 258 246 251 262 267 263 253 268 276 286 309 316 303 25 15 11
352 352 352 351 353 357 327 337 345 306 290 48 356 319 359 284 220 162 228 74 323 299 269 252 251 264 300 220 204 217 239 238 251 261 271 270 296 1 35 342 239 38 12 6
347 348 350 351 350 353 336 301 6 291 287 55 343 1 348 351 309 306 137 86 251 239 262 256 257 252 240 255 264 240 202 228 261 256 253 261 329 357 15 268 37 23 17 8
342 345 348 347 349 353 348 302 33 345 317 66 359 6 348 331 282 309 49 248 190 248 257 271 270 266 290 318 324 337 309 299 278 257 254 256 15 357 1 40 35 16 358 1
339 342 343 343 347 350 343 295 7 331 269 7 336 346 348 330 347 329 333 359 315 12 308 14 320 312 325 296 283 290 262 270 300 320 348 343 12 45 28 352 347 349 328 316
334 340 341 340 343 345 348 302 318 321 260 233 210 170 76 313 284 339 303 81 16 81 353 327 328 313 321 291 295 320 310 36 325 317 304 320 333 31 14 346 323 320 314 318
329 337 337 339 339 337 336 306 353 325 293 278 127 124 202 23 315 294 348 10 275 295 269 278 285 291 328 300 310 304 303 316 303 293 290 344 318 358 350 334 330 321 313 310
327 330 332 331 328 326 308 267 2 18 329 328 341 142 124 177 130 209 219 264 286 275 243 228 246 271 323 304 303 290 289 329 330 326 352 327 325 329 323 312 308 300 301 304
326 326 323 319 320 326 286 184 59 20 328 283 266 87 170 138 171 191 201 247 242 257 286 302 315 322 290 268 276 314 307 319 330 341 340 327 312 313 331 326 319 313 312 308
320 318 311 305 306 305 307 7 346 329 304 255 257 178 148 177 187 217 221 196 238 274 292 283 280 276 234 267 272 320 344 354 3 351 346 335 329 314 302 300 294 294 296 286
310 307 302 298 288 268 274 104 221 284 295 270 275 117 160 186 209 206 283 247 229 195 279 287 269 267 250 248 308 339 332 345 319 311 311 304 291 282 302 305 312 306 299 304
305 304 301 269 222 170 51 301 251 240 281 296 278 304 108 176 226 176 199 208 254 77 252 263 213 267 248 292 329 29 15 311 327 307 328 322 319 341 331 322 310 300 297 293
303 275 222 245 29 346 216 197 199 215 209 231 265 260 178 198 245 106 284 232 270 267 286 206 216 243 119 113 129 183 271 291 310 317 295 302 311 314 312 310 307 299 302 295
215 327 338 67 149 240 229 232 205 185 221 213 237 260 190 61 305 38 286 199 330 244 252 221 281 316 98 69 331 353 334 332 321 313 321 349 328 325 319 314 309 298 288 284
341 298 277 240 235 243 244 213 218 216 258 162 223 181 223 115 25 262 80 279 248 255 170 252 250 212 143 218 356 338 356 325 326 320 338 348 335 324 314 304 301 298 292 288
249 225 232 219 219 318 232 206 201 210 201 168 183 181 213 145 223 250 120 240 232 297 244 227 265 108 72 41 348 350 333 309 326 331 338 334 323 321 312 307 305 301 297 282
246 252 289 230 206 239 218 230 285 312 100 96 86 123 172 246 246 221 237 246 358 236 250 242 218 114 128 331 332 335 310 326 333 325 321 315 322 310 311 310 307 313 315 316
278 277 247 228 245 279 289 328 242 252 148 173 131 185 188 229 233 225 238 237 238 230 218 253 123 137 64 10 317 314 326 327 322 308 315 310 307 305 302 301 306 310 322 324
243 236 251 268 272 326 286 217 196 204 259 155 66 23 258 206 222 205 222 238 222 8 354 358 328 90 67 325 308 333 322 314 303 318 312 296 292 294 297 302 313 321 324 324
226 238 229 258 246 212 231 223 263 135 235 180 240 242 238 215 226 225 256 347 354 356 52 67 275 66 352 349 325 322 326 303 322 310 308 305 302 310 318 319 324 329 329 328